Regional Weather Roundup
Issued by NWS Jackson, KY

Home | Current Version | Previous Version | Text Only | Print | Product List | Glossary On
Versions: 1 2 3 4 5 6 7 8 9 10 11 12 13 14 15 16 17 18 19 20 21 22 23 24 25 26 27 28 29 30 31 32 33 34 35 36 37 38 39 40 41 42 43 44 45 46 47 48 49 50
000
ASUS43 KJKL 230210
RWRJKL

EAST KENTUCKY HOURLY WEATHER ROUNDUP
NATIONAL WEATHER SERVICE JACKSON KY
1000 PM EDT FRI MAY 22 2015

NOTE: "FAIR" INDICATES FEW OR NO CLOUDS BELOW 12,000 FEET WITH
NO SIGNIFICANT WEATHER AND/OR OBSTRUCTIONS TO VISIBILITY.

* THESE REPORTS ARE NOT UNDER NWS QUALITY CONTROL AND MAY NOT
  REPORT WEATHER SUCH AS PRECIPITATION AND FOG.

KYZ079-080-083-085-087-088-110-112-115-119-120-230300
...EASTERN KENTUCKY...

CITY           SKY/WX    TMP DP  RH WIND       PRES   REMARKS
JACKSON        PTCLDY    62  42  47 CALM      30.30R
LONDON         CLEAR     59  45  59 CALM      30.30R
SOMERSET*      PTCLDY    57  46  67 CALM      30.30S
MONTICELLO*    MOCLDY    55  51  86 CALM      30.32S
MIDDLESBORO*   CLEAR     56  47  69 CALM      30.32R
HARLAN APT*    PTCLDY    54  45  71 CALM      30.32R
HAZARD APT*    CLEAR     55  50  82 CALM      30.30R
BLACK MTN*       N/A     48  41  76 CALM        N/A
PIKEVILLE APT* CLEAR     59  45  58 CALM      30.30R
BIG SANDY*     MOCLDY    62  46  56 CALM      30.30R
MOREHEAD APT*  MOCLDY    59  45  58 S5        30.29S
$$

KYZ035-036-041-042-044-050-067-078-099-230300
...CENTRAL KENTUCKY...

CITY           SKY/WX    TMP DP  RH WIND       PRES   REMARKS
MT STERLING*   MOCLDY    55  50  82 SW3       30.30R
FLEMING/MASON* CLEAR     63  46  55 S7        30.28R
DANVILLE*      MOCLDY    57  48  72 CALM      30.29S
RICHMOND*      MOCLDY    61  45  55 CALM      30.28S
LEXINGTON      PTCLDY    61  47  59 S3        30.28R
FRANKFORT      MOCLDY    62  48  60 SW3       30.26R
$$

KYZ091>093-OHZ055-061-077-WVZ005-015-034-035-042-230300
...SOUTHERN OHIO/WEST VIRGINIA...

CITY           SKY/WX    TMP DP  RH WIND       PRES   REMARKS
COVINGTON      MOCLDY    64  46  52 CALM      30.25R
COLUMBUS       MOCLDY    61  37  41 N6        30.25R
DAYTON         PTCLDY    62  44  51 NE3       30.26R
WILMINGTON     MOCLDY    62  43  49 CALM      30.25R
HUNTINGTON     CLOUDY    61  45  55 CALM      30.26R
CHARLESTON     MOCLDY    61  48  62 SW7       30.26R
PINEVILLE*     PTCLDY    51  49  92 MISG      30.35R
BECKLEY        CLEAR     54  41  61 SW3       30.32R
BLUEFIELD      PTCLDY    56  41  57 W6        30.33R
$$

VAZ002-007-008-TNZ017-027-036-066-071-230300
...SOUTHWEST VIRGINIA/EAST TENNESSEE...

CITY           SKY/WX    TMP DP  RH WIND       PRES   REMARKS
WISE*          PTCLDY    55  36  47 CALM      30.35R
JONESVILLE*    PTCLDY    54  48  82 CALM      30.33R
ABINGDON*      CLEAR     55  45  68 CALM      30.32R
BRISTOL        PTCLDY    56  46  69 NE3       30.30R
KNOXVILLE      PTCLDY    64  42  44 NE3       30.27R
OAK RIDGE      PTCLDY    60  46  59 CALM      30.30R
CROSSVILLE     CLEAR     57  46  66 CALM      30.31R
NASHVILLE      MOCLDY    67  46  47 E5        30.27S
$$

...KEY TO REMARKS...
VSB - VISIBILITY IN MILES
WCI - WIND CHILL INDEX
HX  - HEAT INDEX

$$


USA.gov is the U.S. government's official web portal to all federal, state and local government web resources and services.